{"data":{"norad_id":68261,"epoch":"2026-05-25T01:27:45.345600Z","epoch_age_seconds":59814,"freshness":"FRESH","line1":"1 68261U 25241B   26145.06094150  .00007450  00000+0  32072-3 0  9992","line2":"2 68261  51.6618  69.6677 0006643  73.9925 286.1785 15.23568436 11380","mean_motion":15.23568436,"eccentricity":0.0006643,"inclination_deg":51.6618,"raan_deg":69.6677,"arg_perigee_deg":73.9925,"mean_anomaly_deg":286.1785,"bstar":0.00032072,"rev_number":1138,"period_min":94.514953577051,"perigee_km":490.52162759072,"apogee_km":499.65339367554,"semimajor_km":6873.2245106331,"source":"CELESTRAK","updated_at":"2026-05-25T13:38:07.684885Z"}}